sat.trackr.live / text

‹ back to catalog

STARLINK-30233

NORAD 57302 · 2023-096N

PAYLOAD ACTIVE UNKNOWN

§ Identity

Operator
Country
US
Launch date
2023-07-10
Launch site
AFETR
Launch vehicle
Mass (kg)
RCS (m²)

Purposes: comms

External: N2YO · Heavens-Above · Gunter

§ Orbital elements

Epoch: 2026-05-25T01:03:29.745792Z

Period
94.27 min
Inclination
43.0007°
Eccentricity
0.0001438
Mean motion
15.27586812 rev/d
Perigee alt
482.0 km
Apogee alt
484.0 km
Semi-major
6,861.2 km
B*
-1.2954e-5
RAAN
152.0448°
Arg perigee
267.2797°
Mean anomaly
92.7890°
Rev number
15,839

§ Raw data

STARLINK-302331 57302U 23096N   26145.04409428 -.00000619  00000+0 -12954-4 0  99982 57302  43.0007 152.0448 0001438 267.2797  92.7890 15.27586812158399

JSON: /api/v1/satellites/57302 · /tle

For live sub-satellite position, see the globe view (requires WebGL).

§ Visibility from observer

Set your observer location to see the next 7 days of passes ≥ 10°. The values pass through the URL so the page stays shareable.

No JS? Fill the form by hand. The geolocation button needs JavaScript.